Date,TemperatureHighF,TemperatureAvgF,TemperatureLowF,DewpointHighF,DewpointAvgF,DewpointLowF,HumidityHigh,HumidityAvg,HumidityLow,PressureMaxIn,PressureMinIn,WindSpeedMaxMPH,WindSpeedAvgMPH,GustSpeedMaxMPH,PrecipitationSumIn
2013-1-1,51.7,38.8,31.1,37.5,31.8,27.2,89,77,55,30.23,30.17,8,1,9,0.00
2013-1-2,56.5,37.9,26.6,39.4,30.5,23.8,92,76,51,30.21,30.09,3,0,3,0.00
2013-1-3,56.9,38.6,26.6,42.3,31.9,23.6,91,78,54,30.23,30.12,4,0,4,0.00
2013-1-4,58.7,40.6,29.7,40.1,33.0,26.8,92,76,49,30.25,30.14,4,0,4,0.00
2013-1-5,53.3,42.3,32.4,45.2,37.8,29.4,91,84,72,30.22,30.05,4,1,4,0.29
2013-1-6,47.2,42.3,34.0,43.8,39.8,31.9,93,91,85,30.16,30.03,6,1,6,0.08
2013-1-7,57.6,41.9,32.8,48.2,38.2,31.0,94,87,70,30.22,30.11,2,0,3,0.00
2013-1-8,60.7,44.3,35.1,48.9,39.5,32.9,94,84,63,30.20,30.09,2,0,3,0.00
2013-1-9,51.8,43.1,36.5,47.5,39.2,32.9,94,87,74,30.11,29.95,7,1,7,0.03
2013-1-10,51.5,40.4,33.1,35.9,32.4,29.4,89,74,48,30.13,30.02,8,2,8,0.00
2013-1-11,50.2,39.2,28.4,39.3,32.4,24.8,89,77,58,30.21,30.08,6,1,6,0.06
2013-1-12,49.7,37.2,28.3,33.2,28.5,24.8,93,73,42,30.21,30.08,4,1,4,0.02
2013-1-13,50.0,34.1,23.2,26.3,22.2,18.4,88,65,31,30.22,30.12,6,1,6,0.00
2013-1-14,51.7,39.1,30.6,22.7,18.1,14.0,68,44,25,30.35,30.17,5,1,5,0.00
2013-1-15,55.3,36.9,25.9,33.0,25.0,20.3,82,64,40,30.44,30.35,5,1,5,0.00
2013-1-16,58.0,38.4,26.6,36.7,28.1,22.2,87,69,41,30.39,30.23,7,1,7,0.00
2013-1-17,65.0,41.2,27.9,39.1,30.1,24.1,89,68,33,30.23,30.10,5,0,5,0.00
2013-1-18,65.7,41.4,28.4,40.1,30.3,24.7,89,68,33,30.20,30.09,4,0,4,0.00
2013-1-19,63.9,41.4,27.5,39.2,30.4,23.2,86,68,39,30.22,30.12,6,1,6,0.00
2013-1-20,65.9,41.8,27.9,37.9,30.1,24.1,88,67,30,30.20,30.10,5,1,5,0.00
2013-1-21,64.1,41.5,27.2,42.5,32.0,23.0,87,71,42,30.15,30.07,6,1,6,0.00
2013-1-22,62.3,44.7,29.9,43.9,36.0,26.5,90,73,49,30.09,29.98,3,0,3,0.00
2013-1-23,51.7,47.0,43.0,48.0,43.1,38.9,92,87,78,30.07,29.92,6,1,6,0.07
2013-1-24,56.3,50.7,47.2,51.0,48.0,45.0,94,91,82,30.15,30.04,3,0,3,0.19
2013-1-25,67.0,55.1,48.2,56.9,50.8,45.5,95,86,70,30.15,30.00,6,1,6,0.00
2013-1-26,58.7,48.8,41.4,49.6,42.8,36.3,94,81,53,30.02,29.94,14,2,14,0.00
2013-1-27,57.2,44.9,34.4,39.2,34.9,29.5,91,70,37,30.11,30.00,12,2,12,0.00
2013-1-28,58.9,45.3,34.2,41.3,36.2,30.3,90,72,46,30.23,30.10,8,1,8,0.00
2013-1-29,61.6,45.1,33.7,44.1,37.3,30.7,91,76,47,30.31,30.21,7,1,7,0.00
2013-1-30,68.4,48.9,36.4,44.3,38.1,32.9,93,70,39,30.29,30.21,8,1,8,0.00
2013-1-31,66.6,47.1,32.9,47.6,38.5,29.3,90,74,49,30.24,30.13,7,1,7,0.00
2013-2-1,68.2,48.3,33.5,49.6,40.1,30.2,92,75,49,30.17,30.06,8,1,8,0.00
2013-2-2,65.2,48.5,39.6,51.1,42.7,36.4,91,81,60,30.25,30.16,5,0,5,0.00
2013-2-3,62.6,49.5,40.0,48.0,42.5,35.9,92,78,57,30.21,30.09,7,1,7,0.00
2013-2-4,66.8,46.8,34.0,51.8,40.9,31.2,93,81,50,30.14,30.02,6,1,6,0.00
2013-2-5,57.2,49.2,41.4,46.8,43.1,37.6,91,80,68,30.10,30.02,9,2,9,0.00
2013-2-6,61.2,45.5,32.8,46.0,38.8,30.2,93,79,52,30.15,30.06,11,1,11,0.00
2013-2-7,55.8,43.7,35.1,45.2,37.2,32.1,92,79,53,30.14,29.95,10,2,10,0.05
2013-2-8,55.1,42.8,33.8,42.0,36.5,29.7,92,79,53,29.97,29.89,11,1,11,0.04
2013-2-9,58.9,42.0,28.4,36.2,29.2,25.0,90,65,32,30.07,29.94,8,1,8,0.00
2013-2-10,61.4,43.3,28.1,38.6,31.7,23.6,86,66,41,30.09,29.97,10,1,10,0.00
2013-2-11,64.4,45.2,29.9,37.6,30.6,26.2,89,62,27,30.19,30.02,8,1,8,0.00
2013-2-12,63.4,45.2,30.1,41.8,33.7,25.4,86,66,42,30.31,30.19,9,1,9,0.00
2013-2-13,67.5,47.5,31.5,44.7,35.5,27.5,88,66,34,30.30,30.16,9,1,9,0.00
2013-2-14,70.4,51.6,35.6,45.6,38.2,31.5,89,64,34,30.20,30.11,10,1,10,0.00
2013-2-15,72.7,52.4,36.0,47.6,40.2,31.9,89,66,39,30.23,30.17,8,1,8,0.00
2013-2-16,70.6,51.3,36.5,50.8,41.1,32.9,90,70,47,30.21,30.01,5,0,5,0.00
2013-2-17,67.1,50.2,39.1,46.8,40.5,33.9,92,72,39,30.02,29.92,8,1,8,0.00
2013-2-18,51.5,45.0,36.5,42.1,37.9,32.6,92,77,63,30.01,29.92,13,3,13,0.00
2013-2-19,46.8,42.3,34.6,41.8,36.8,30.7,88,81,70,29.93,29.70,13,2,13,0.76
2013-2-20,60.1,43.8,29.9,41.4,34.5,27.4,92,72,39,30.02,29.79,8,1,8,0.00
2013-2-21,61.2,45.4,31.5,41.5,33.3,28.9,91,66,33,30.13,30.00,11,1,11,0.00
2013-2-22,64.4,46.9,31.5,43.1,36.1,28.0,90,69,38,30.21,30.13,10,1,10,0.00
2013-2-23,61.4,50.7,42.7,45.2,38.0,31.3,90,65,34,30.21,30.10,11,2,11,0.00
2013-2-24,65.0,49.6,37.3,33.9,27.5,22.3,74,46,21,30.22,30.12,11,1,11,0.00
2013-2-25,65.2,47.5,31.9,45.7,35.4,26.0,82,65,40,30.23,30.12,8,1,8,0.00
2013-2-26,69.3,50.4,32.4,39.9,30.5,23.0,90,54,19,30.18,30.08,10,1,10,0.00
2013-2-27,70.9,50.6,31.9,44.1,34.9,26.5,83,59,30,30.32,30.17,8,1,8,0.00
2013-2-28,70.6,53.9,39.6,53.6,44.7,34.9,88,72,54,30.41,30.32,10,1,10,0.00
2013-3-1,74.5,56.3,39.8,52.2,45.2,36.6,91,69,41,30.39,30.20,8,1,8,0.00
2013-3-2,73.4,57.7,43.7,54.2,46.8,39.5,88,68,49,30.21,30.02,7,1,7,0.00
2013-3-3,65.5,55.0,47.2,49.3,46.1,42.3,85,73,51,30.07,29.99,13,3,13,0.00
2013-3-4,61.6,50.2,42.1,48.9,43.1,37.6,86,77,59,30.11,30.02,11,2,11,0.00
2013-3-5,60.7,50.5,39.2,44.4,40.4,35.4,90,70,47,30.03,29.79,18,4,18,0.11
2013-3-6,56.2,49.4,37.6,44.9,40.3,32.8,88,72,51,30.04,29.80,17,4,17,0.15
2013-3-7,57.6,47.0,34.4,45.7,37.8,30.5,90,72,47,29.96,29.81,7,1,7,0.04
2013-3-8,66.8,50.3,40.3,47.3,41.4,35.8,90,73,44,30.00,29.78,13,2,13,0.02
2013-3-9,69.1,51.7,36.0,48.0,38.5,32.8,92,65,31,30.26,30.00,11,2,11,0.00
2013-3-10,72.5,53.7,34.4,46.5,35.6,30.4,90,56,24,30.29,30.20,9,1,9,0.00
2013-3-11,76.3,55.5,36.2,47.3,39.0,31.1,85,57,30,30.22,30.05,9,1,9,0.00
2013-3-12,78.5,59.0,39.8,52.6,44.3,34.9,87,61,38,30.11,30.02,9,1,9,0.00
2013-3-13,80.6,61.3,42.7,56.4,48.4,38.6,90,65,42,30.13,30.02,8,1,8,0.00
2013-3-14,77.0,59.6,45.9,57.7,48.5,42.1,90,69,40,30.12,30.04,10,1,11,0.00
2013-3-15,75.4,57.0,43.0,54.8,45.7,38.8,88,68,42,30.10,30.00,9,1,9,0.00
2013-3-16,73.8,57.6,46.6,53.6,46.8,43.0,91,70,41,30.08,29.99,14,2,14,0.00
2013-3-17,71.8,56.1,39.6,49.8,42.6,35.3,88,63,38,30.11,30.00,11,2,11,0.00
2013-3-18,70.0,54.2,38.7,48.9,42.3,34.6,88,66,43,30.09,29.98,9,1,9,0.00
2013-3-19,74.2,55.3,43.7,47.7,43.3,36.5,88,67,38,30.11,30.02,15,2,15,0.07
2013-3-20,65.9,55.7,49.3,55.2,49.7,44.0,91,81,57,30.10,30.02,12,2,12,0.04
2013-3-21,68.0,55.1,42.1,49.0,42.5,37.9,88,65,35,30.09,29.97,11,2,11,0.00
2013-3-22,70.4,54.0,38.0,39.1,30.3,15.1,89,51,13,30.07,29.98,12,2,12,0.00
2013-3-23,71.3,53.1,34.4,40.0,31.9,26.7,80,50,21,30.10,29.99,9,1,9,0.00
2013-3-24,75.2,55.5,37.4,49.0,40.1,31.2,83,59,37,30.05,29.92,9,1,9,0.00
2013-3-25,63.9,51.1,40.0,48.7,41.7,36.1,89,72,48,29.98,29.89,13,2,13,0.00
2013-3-26,71.3,56.4,45.7,50.1,44.5,40.6,85,66,42,29.97,29.88,10,2,10,0.00
2013-3-27,68.8,56.5,45.0,52.8,46.9,39.2,84,71,54,29.98,29.91,13,2,13,0.00
2013-3-28,73.8,61.3,53.6,55.5,52.0,47.5,90,73,51,30.05,29.97,8,1,8,0.07
2013-3-29,78.3,61.9,44.6,55.8,49.3,41.3,92,66,42,30.05,29.96,11,2,11,0.00
2013-3-30,73.1,61.1,54.9,56.4,51.1,48.3,86,71,46,30.03,29.93,10,2,10,0.08
2013-3-31,69.7,59.1,49.3,53.5,50.4,45.7,90,74,45,30.04,29.96,11,2,11,0.18
2013-4-1,69.8,58.2,50.6,54.9,50.5,44.6,92,77,50,30.12,30.01,11,2,11,0.08
2013-4-2,72.4,56.6,42.8,56.5,48.2,39.3,92,75,54,30.14,30.03,10,2,10,0.00
2013-4-3,79.2,59.9,46.8,55.7,48.5,43.8,93,69,39,30.10,29.94,12,1,12,0.00
2013-4-4,66.4,57.9,51.5,56.7,51.8,47.3,91,80,66,30.09,29.96,12,3,12,0.48
2013-4-5,66.2,58.3,52.6,53.5,50.2,47.3,88,75,56,30.14,30.08,10,3,10,0.00
2013-4-6,67.3,57.5,52.2,54.9,50.7,47.7,88,79,61,30.16,30.10,12,3,12,0.00
2013-4-7,65.0,56.2,50.4,53.4,49.1,44.6,91,78,58,30.13,29.80,24,4,24,0.39
2013-4-8,69.1,55.8,44.6,48.3,37.4,26.4,89,55,23,29.98,29.76,18,3,24,0.02
2013-4-9,76.9,61.5,46.8,39.3,34.7,27.9,72,41,18,30.06,29.98,14,2,14,0.00
2013-4-10,87.8,67.6,49.3,54.7,46.0,35.1,76,48,28,30.14,30.00,15,3,15,0.00
2013-4-11,74.2,60.3,48.4,51.8,47.7,42.2,87,65,42,30.03,29.81,12,2,12,0.00
2013-4-12,80.3,59.0,41.8,53.3,45.2,37.7,90,64,34,29.89,29.79,12,2,12,0.00
2013-4-13,56.2,46.7,45.0,47.4,42.0,40.6,87,84,72,29.87,29.81,4,1,4,0.00
2013-4-14,69.5,60.0,46.1,45.8,43.3,39.8,87,56,38,29.90,29.82,14,4,14,0.00
2013-4-15,61.7,51.7,45.0,46.4,40.2,31.7,87,67,38,29.91,29.82,17,4,17,0.00
2013-4-16,46.6,40.2,36.7,37.2,33.5,31.3,84,77,67,30.04,29.91,4,0,5,0.00
2013-4-17,71.6,62.7,47.3,34.2,29.3,23.1,53,30,18,30.22,30.14,13,2,13,0.00
2013-4-18,79.6,58.8,38.9,43.9,35.8,30.6,77,47,22,30.23,30.14,10,1,10,0.00
2013-4-19,84.2,63.3,42.7,51.6,44.1,35.8,80,53,27,30.20,30.03,11,2,11,0.00
2013-4-20,83.0,64.8,46.4,50.4,44.6,40.1,84,53,23,30.09,29.95,10,2,10,0.00
2013-4-21,90.0,67.4,45.5,49.0,42.8,35.3,83,48,16,30.01,29.90,8,1,8,0.00
2013-4-22,91.3,70.0,49.1,51.9,43.9,34.4,80,46,15,29.95,29.81,10,1,10,0.00
2013-4-23,86.2,69.3,52.9,46.5,35.7,23.9,71,33,15,29.91,29.82,10,2,10,0.00
2013-4-24,77.0,58.5,43.2,52.2,45.3,37.2,83,64,36,29.92,29.80,15,2,15,0.00
2013-4-25,69.1,57.9,50.2,52.8,48.6,45.5,86,72,54,30.11,29.91,14,4,14,0.00
2013-4-26,77.9,60.6,49.5,56.2,48.9,44.2,84,67,43,30.18,30.08,10,2,10,0.00
2013-4-27,85.1,69.5,49.1,58.7,51.3,44.6,86,54,37,30.19,30.03,8,2,11,0.00
2013-4-28,91.4,67.6,46.1,60.0,50.7,41.6,87,59,31,30.04,29.85,8,1,8,0.00
2013-4-29,91.6,76.0,52.6,57.3,51.0,47.3,86,47,24,29.87,29.73,13,2,13,0.00
2013-4-30,87.3,64.1,50.8,53.9,44.7,27.2,85,57,16,29.82,29.75,10,1,10,0.00
2013-5-1,87.7,72.6,54.2,39.7,29.9,19.2,46,22,13,30.06,29.82,10,2,10,0.00
2013-5-2,94.3,71.8,49.1,45.6,37.5,27.1,71,36,13,30.14,30.04,10,1,10,0.00
2013-5-3,93.8,71.2,48.8,45.3,39.1,29.3,68,36,15,30.07,29.77,10,2,10,0.00
2013-5-4,90.9,70.2,51.1,54.8,42.8,34.7,70,42,17,29.77,29.52,12,2,12,0.00
2013-5-5,72.7,61.3,52.9,50.8,47.4,42.8,75,61,44,29.78,29.57,9,2,9,0.00
2013-5-6,71.5,62.1,54.0,56.4,50.7,47.3,81,67,48,29.94,29.78,11,2,11,0.07
2013-5-7,74.7,62.4,51.5,54.1,50.4,45.6,86,67,41,30.01,29.92,12,3,12,0.00
2013-5-8,70.0,58.4,51.5,53.7,49.8,47.3,87,74,52,30.12,30.00,12,2,12,0.00
2013-5-9,70.9,58.9,51.7,54.7,49.6,46.5,85,72,54,30.14,30.04,14,3,14,0.00
2013-5-10,78.1,60.9,51.5,59.0,51.3,46.4,87,73,48,30.15,30.05,10,2,10,0.00
2013-5-11,93.8,69.3,49.3,62.7,52.3,45.5,90,60,23,30.12,30.00,10,2,10,0.00
2013-5-12,85.5,68.3,50.9,60.1,52.6,45.0,85,60,39,30.10,29.99,12,2,12,0.00
2013-5-13,84.8,65.6,49.7,58.9,52.1,45.3,87,64,39,30.05,29.92,12,2,12,0.00
2013-5-14,76.7,62.7,51.5,55.9,49.7,44.8,86,65,40,29.98,29.90,11,2,11,0.00
2013-5-15,68.8,57.0,47.7,50.6,46.8,42.7,84,70,46,30.03,29.97,12,2,12,0.00
2013-5-16,69.5,59.1,52.6,56.5,51.1,47.3,88,76,53,30.00,29.92,14,3,14,0.00
2013-5-17,70.0,58.3,50.0,50.6,47.0,43.1,86,68,44,30.05,29.94,13,3,13,0.00
2013-5-18,76.9,61.0,46.6,54.5,48.7,42.6,88,67,37,30.10,30.04,13,2,13,0.00
2013-5-19,86.4,59.6,47.7,53.5,46.6,42.0,89,67,23,30.09,29.94,11,1,11,0.00
2013-5-20,90.9,69.4,48.6,50.1,43.9,35.2,81,47,16,29.98,29.89,13,2,13,0.00
2013-5-21,72.5,60.3,51.7,51.4,46.5,40.4,82,62,39,29.96,29.88,14,3,14,0.00
2013-5-22,69.7,56.0,42.3,43.5,37.5,28.2,76,53,23,29.98,29.87,16,3,16,0.00
2013-5-23,71.3,57.5,47.2,47.6,43.2,40.1,82,61,40,29.97,29.88,13,2,13,0.00
2013-5-24,73.8,57.0,42.7,49.6,43.0,38.4,88,63,31,29.96,29.91,14,2,14,0.00
2013-5-25,68.8,56.6,48.2,48.1,45.6,41.8,84,68,45,30.02,29.93,13,3,13,0.00
2013-5-26,72.0,60.3,51.5,54.6,50.7,46.4,88,72,51,30.10,30.01,16,4,16,0.00
2013-5-27,66.4,58.2,50.2,55.8,51.4,46.0,88,78,65,30.10,29.95,10,3,10,0.00
2013-5-28,73.8,62.8,55.8,58.0,54.2,50.4,90,75,52,29.97,29.88,12,3,12,0.00
2013-5-29,73.6,62.4,53.3,55.8,51.8,46.6,83,69,51,29.94,29.87,14,3,14,0.00
2013-5-30,80.1,63.9,47.3,52.8,48.7,43.4,90,61,33,29.95,29.90,11,2,11,0.00
2013-5-31,94.0,69.3,47.2,56.3,47.4,41.5,86,52,21,29.98,29.86,12,2,12,0.00
2013-6-1,96.8,75.2,52.4,56.5,50.2,44.8,79,47,23,29.90,29.73,12,2,12,0.00
2013-6-2,89.5,70.0,54.5,58.7,51.4,46.9,79,55,31,29.75,29.63,10,2,10,0.00
2013-6-3,80.8,64.9,52.6,57.7,51.6,47.3,84,64,42,29.80,29.67,13,3,13,0.00
2013-6-4,74.5,61.1,52.4,57.3,51.8,48.2,88,73,53,29.92,29.80,14,4,14,0.00
2013-6-5,77.6,62.5,53.5,55.8,51.4,47.8,86,69,46,29.94,29.86,13,3,13,0.00
2013-6-6,86.9,65.7,52.4,60.5,53.1,47.6,88,67,39,29.92,29.79,11,2,11,0.00
2013-6-7,101.9,75.0,52.0,66.8,56.8,48.5,89,58,30,29.84,29.68,9,2,9,0.00
2013-6-8,106.0,77.6,61.2,65.0,57.0,52.8,77,53,25,29.75,29.63,13,2,13,0.00
2013-6-9,77.0,65.0,58.0,59.1,54.8,52.2,83,70,52,29.84,29.74,14,4,14,0.00
2013-6-10,73.6,63.1,56.2,56.0,52.4,50.0,82,69,51,29.90,29.77,16,3,16,0.00
2013-6-11,82.4,65.5,54.0,58.9,53.2,48.6,85,67,43,29.93,29.85,10,2,10,0.00
2013-6-12,81.0,60.6,50.9,53.6,48.3,45.5,85,68,32,29.95,29.84,11,1,11,0.00
2013-6-13,83.2,65.2,47.5,53.8,48.1,43.1,88,58,32,30.04,29.95,13,2,13,0.00
2013-6-14,89.1,69.5,49.5,52.7,46.3,41.6,84,49,22,29.95,29.78,13,2,13,0.00
2013-6-15,78.5,62.0,50.2,55.6,49.3,43.5,86,65,42,29.95,29.77,14,2,14,0.00
2013-6-16,82.4,64.6,47.3,54.9,50.1,43.2,89,63,36,30.02,29.94,11,2,11,0.00
2013-6-17,76.3,63.3,51.1,57.6,52.4,46.9,89,69,46,30.03,29.97,13,3,13,0.00
2013-6-18,72.2,61.9,53.6,52.8,50.8,47.6,86,69,46,29.97,29.92,13,4,13,0.00
2013-6-19,76.9,62.9,48.6,52.8,48.7,43.9,88,62,39,29.98,29.93,13,3,13,0.00
2013-6-20,81.0,64.6,48.4,55.4,48.7,43.5,87,60,32,29.95,29.87,13,2,13,0.00
2013-6-21,85.3,71.0,48.2,56.3,49.9,43.3,88,52,25,29.91,29.84,13,3,13,0.00
2013-6-22,90.5,69.5,50.0,55.5,49.5,44.7,84,55,23,29.86,29.76,15,2,15,0.00
2013-6-23,70.6,62.0,56.2,60.5,56.0,50.4,88,81,70,29.82,29.74,10,2,10,0.15
2013-6-24,67.7,63.1,58.7,60.0,57.8,55.2,89,83,75,29.83,29.71,8,1,8,0.02
2013-6-25,80.6,68.4,61.6,66.0,60.9,57.1,87,77,59,29.91,29.81,10,3,10,0.00
2013-6-26,86.6,73.2,62.6,66.4,61.6,57.3,89,69,46,29.97,29.90,11,3,12,0.00
2013-6-27,95.4,76.3,57.2,66.7,59.8,53.4,90,61,33,30.00,29.92,10,2,10,0.00
2013-6-28,102.1,82.0,59.8,66.1,58.5,54.0,83,50,23,29.96,29.82,15,2,15,0.00
2013-6-29,104.4,83.5,61.2,64.7,58.0,52.6,76,46,25,29.84,29.71,14,2,14,0.00
2013-6-30,99.5,80.2,61.9,62.9,57.6,53.2,77,50,24,29.76,29.67,12,2,12,0.00
2013-7-1,100.6,80.8,60.7,64.3,57.7,53.0,79,50,25,29.75,29.71,10,2,10,0.00
2013-7-2,103.3,81.4,65.9,66.0,59.6,54.6,72,50,27,29.82,29.73,9,2,9,0.00
2013-7-3,101.0,79.5,62.3,65.5,58.3,52.5,80,53,29,29.81,29.66,12,2,12,0.00
2013-7-4,100.4,83.3,68.2,66.2,58.9,50.8,65,45,29,29.68,29.57,12,2,12,0.00
2013-7-5,76.7,64.5,55.8,57.2,52.4,48.8,82,66,48,29.70,29.61,12,3,12,0.00
2013-7-6,83.9,66.3,55.3,58.3,53.2,49.5,85,65,41,29.69,29.61,10,2,10,0.00
2013-7-7,89.8,68.4,51.5,59.1,53.1,47.9,89,63,28,29.74,29.65,10,2,10,0.00
2013-7-8,92.5,66.9,52.0,58.2,51.3,46.2,89,64,21,29.85,29.74,8,2,8,0.00
2013-7-9,101.0,77.7,54.7,60.0,51.0,39.1,84,47,14,29.90,29.80,9,2,9,0.00
2013-7-10,92.2,71.1,55.4,59.1,51.0,47.1,82,53,24,29.87,29.77,12,2,12,0.00
2013-7-11,82.1,66.4,53.5,57.9,52.7,48.7,86,64,41,29.83,29.75,10,2,10,0.00
2013-7-12,84.2,67.0,51.7,57.6,51.2,45.6,90,61,33,29.81,29.75,11,2,11,0.00
2013-7-13,92.5,71.0,51.7,57.7,50.0,41.9,86,53,24,29.84,29.77,10,2,10,0.00
2013-7-14,86.6,68.9,52.9,57.5,51.2,45.4,84,57,30,29.87,29.76,10,2,12,0.00
2013-7-15,77.4,62.4,53.5,56.3,52.0,48.3,86,70,46,29.80,29.70,15,3,15,0.00
2013-7-16,57.8,57.5,57.4,52.5,52.2,51.9,83,82,82,29.75,29.74,4,2,4,0.00
2013-7-19,89.5,72.0,59.4,55.6,52.7,50.2,73,53,30,29.83,29.77,8,2,8,0.00
2013-7-20,92.7,69.9,53.6,61.1,54.7,49.5,87,62,32,29.83,29.69,10,2,10,0.00
2013-7-21,92.9,71.2,54.2,61.3,54.5,49.7,87,60,31,29.85,29.74,8,2,8,0.00
2013-7-22,88.2,70.5,56.5,61.5,55.8,50.8,87,62,29,29.93,29.84,7,2,8,0.00
2013-7-23,87.1,73.4,63.5,60.1,54.4,49.1,74,54,33,29.97,29.90,10,2,10,0.00
2013-7-24,94.7,75.5,58.7,58.8,52.9,44.4,81,50,20,29.95,29.86,12,3,12,0.00
2013-7-25,88.0,72.2,60.1,57.6,52.3,46.0,75,52,28,29.99,29.89,13,3,13,0.00
2013-7-26,88.9,69.5,55.3,59.8,54.6,50.0,86,62,36,30.06,29.96,13,3,13,0.00
2013-7-27,87.1,68.4,55.8,61.6,55.4,51.5,88,66,39,30.00,29.82,9,2,9,0.00
2013-7-28,81.0,67.6,55.8,59.6,55.5,50.0,89,67,45,29.84,29.77,11,3,11,0.00
2013-7-29,80.3,63.4,54.0,58.0,53.0,49.4,88,71,45,29.97,29.81,16,3,16,0.00
2013-7-30,85.0,65.6,52.2,59.0,53.3,48.7,90,68,38,30.06,29.97,12,2,12,0.00
2013-7-31,79.4,64.5,54.7,57.6,52.6,49.5,87,68,40,30.05,29.98,11,2,11,0.00
2013-8-1,76.9,63.2,52.2,54.5,51.4,48.2,89,68,43,30.05,29.94,12,2,12,0.00
2013-8-2,86.0,65.6,50.0,57.8,51.7,46.5,91,65,32,29.95,29.86,9,2,9,0.00
2013-8-3,85.9,66.7,52.0,58.6,53.2,48.1,89,65,35,29.95,29.87,9,2,9,0.00
2013-8-4,80.5,62.9,54.0,57.5,53.1,49.3,88,73,43,29.99,29.90,11,3,11,0.00
2013-8-5,81.5,63.8,54.2,59.1,53.6,49.3,86,72,44,30.00,29.91,11,2,11,0.00
2013-8-6,75.6,62.0,54.9,57.2,53.3,50.4,86,75,51,30.02,29.95,13,3,13,0.00
2013-8-7,75.1,63.5,56.5,57.1,54.5,52.4,88,74,52,30.08,30.00,11,4,11,0.00
2013-8-8,78.3,63.8,56.2,59.0,55.2,50.7,89,75,49,30.01,29.91,13,3,13,0.00
2013-8-9,77.0,62.5,55.4,58.2,54.0,50.9,87,75,51,29.97,29.90,11,3,11,0.00
2013-8-10,79.4,64.3,56.3,60.3,55.5,52.0,88,75,49,30.03,29.96,12,3,12,0.00
2013-8-11,83.2,66.5,56.9,59.5,55.8,51.3,88,71,41,30.00,29.90,11,2,11,0.00
2013-8-12,86.8,67.6,50.8,60.0,52.7,47.3,92,63,30,29.96,29.91,10,2,10,0.00
2013-8-13,95.4,70.5,50.8,59.0,52.1,45.2,88,58,20,29.96,29.87,12,2,12,0.00
2013-8-14,87.3,71.7,52.7,58.8,54.0,47.9,88,58,29,29.95,29.88,10,2,10,0.00
2013-8-15,86.8,70.8,57.6,65.9,60.3,53.7,90,72,46,29.95,29.89,14,3,14,0.00
2013-8-16,89.6,71.8,60.5,65.3,59.2,53.3,90,68,35,29.96,29.91,13,2,13,0.00
2013-8-17,81.4,67.1,57.6,60.7,56.4,52.4,86,70,44,29.96,29.84,10,2,10,0.00
2013-8-18,100.1,75.2,54.7,65.3,58.2,51.4,90,61,26,29.87,29.74,8,1,8,0.00
2013-8-19,100.3,78.7,62.3,65.0,58.1,48.9,80,53,29,29.87,29.77,12,2,12,0.00
2013-8-20,90.5,72.5,59.8,62.6,56.4,50.9,83,59,35,29.86,29.78,12,2,12,0.00
2013-8-21,83.2,66.3,56.3,59.0,54.5,51.3,86,68,42,29.91,29.82,12,3,12,0.00
2013-8-22,78.3,63.0,54.7,57.7,53.3,50.6,88,73,47,29.95,29.86,13,3,13,0.00
2013-8-23,80.8,66.4,55.6,58.8,54.6,50.1,85,68,43,29.91,29.79,10,2,10,0.00
2013-8-24,81.4,61.8,52.9,59.9,53.8,49.8,91,77,47,29.88,29.82,14,2,14,0.00
2013-8-25,85.3,69.0,60.8,65.1,59.8,55.2,88,74,49,29.92,29.85,13,3,13,0.00
2013-8-26,81.9,66.9,58.7,60.0,56.6,52.2,86,71,46,29.98,29.87,12,3,12,0.00
2013-8-27,86.4,67.7,52.7,60.4,55.1,49.2,90,68,34,29.89,29.78,14,2,14,0.00
2013-8-28,85.9,69.2,57.2,63.5,59.0,52.7,90,72,45,29.92,29.84,13,3,13,0.00
2013-8-29,86.6,70.3,59.9,64.7,60.1,56.7,90,72,41,30.03,29.92,11,3,11,0.00
2013-8-30,94.0,73.4,56.9,65.1,59.1,53.6,92,65,31,30.02,29.88,11,2,11,0.00
2013-8-31,85.5,69.6,55.8,61.5,55.6,51.3,89,64,34,29.95,29.87,11,2,11,0.00
2013-9-1,85.3,69.7,59.0,60.1,57.1,53.9,85,67,38,29.92,29.85,12,3,12,0.00
2013-9-2,82.8,70.0,63.7,63.8,60.6,58.3,85,73,49,29.94,29.86,10,2,10,0.00
2013-9-3,79.7,67.0,57.6,58.8,56.1,52.5,90,71,42,29.98,29.91,12,3,12,0.00
2013-9-4,80.1,68.1,56.2,60.3,57.2,52.7,90,70,47,30.01,29.92,11,3,11,0.00
2013-9-5,79.9,67.3,58.7,58.9,56.5,53.6,85,70,45,29.99,29.92,10,3,10,0.00
2013-9-6,93.2,70.8,50.9,58.7,52.4,47.0,91,59,25,29.97,29.80,8,1,8,0.00
2013-9-7,98.3,75.1,54.4,56.6,50.2,45.9,79,47,22,29.86,29.77,11,1,11,0.00
2013-9-8,97.7,77.1,56.3,61.3,54.1,48.2,79,49,27,29.85,29.72,9,1,9,0.00
2013-9-9,97.9,75.1,56.9,61.5,53.2,46.6,79,51,23,29.79,29.68,13,2,13,0.00
2013-9-10,81.7,69.7,58.7,61.3,57.5,52.2,86,67,48,29.87,29.71,15,3,15,0.00
2013-9-11,76.7,66.0,59.4,60.1,57.1,54.3,85,74,55,29.97,29.86,11,4,11,0.00
2013-9-12,82.4,67.2,59.9,63.5,58.5,54.8,86,75,49,29.96,29.85,10,3,10,0.00
2013-9-13,82.6,65.7,57.2,61.3,56.2,52.1,87,73,45,29.89,29.74,9,2,9,0.00
2013-9-14,73.4,62.2,55.3,59.5,55.1,51.0,87,78,61,29.81,29.72,8,2,8,0.00
2013-9-15,79.9,64.9,53.6,60.0,55.6,50.5,91,74,48,29.84,29.77,12,3,12,0.00
2013-9-16,82.8,66.7,57.8,61.6,57.1,53.3,92,74,45,29.87,29.77,15,2,15,0.00
2013-9-17,76.1,64.3,57.2,57.6,54.3,51.3,87,72,47,29.86,29.80,13,3,13,0.00
2013-9-18,84.2,65.8,49.7,58.4,49.0,42.9,91,60,24,29.89,29.79,12,2,12,0.00
2013-9-19,92.3,68.7,47.3,52.7,45.6,41.5,83,50,20,29.84,29.71,9,1,9,0.00
2013-9-20,75.4,63.0,51.5,60.2,53.7,46.3,89,72,58,29.85,29.74,14,3,14,0.00
2013-9-22,73.6,66.7,57.1,57.1,53.6,50.6,80,64,51,29.98,29.92,9,3,12,0.00
2013-9-23,83.7,65.8,49.3,60.5,54.1,45.9,92,69,40,30.00,29.90,12,1,12,0.00
2013-9-24,75.2,64.3,54.4,58.0,53.3,46.8,90,69,48,29.97,29.87,14,3,14,0.00
2013-9-25,72.0,59.9,49.3,51.8,46.4,43.3,85,63,43,29.90,29.79,13,2,13,0.00
2013-9-26,76.0,59.1,43.6,52.4,42.7,39.5,89,59,28,29.96,29.80,11,1,11,0.00
2013-9-27,78.7,65.4,43.7,49.5,40.3,36.6,86,46,23,30.08,29.96,10,2,10,0.00
2013-9-28,85.9,63.4,43.7,52.4,41.7,31.2,81,51,17,30.06,29.96,12,1,12,0.00
2013-9-29,77.4,64.0,51.7,60.2,55.1,47.9,90,74,52,30.09,30.02,10,2,10,0.00
2013-9-30,76.3,66.1,59.0,62.9,58.0,52.4,89,76,57,30.05,29.94,10,2,10,0.00
2013-10-1,74.3,62.3,48.6,56.4,50.4,44.5,91,67,48,29.99,29.89,8,2,8,0.00
2013-10-2,77.6,60.5,47.2,56.0,47.7,43.6,89,66,37,29.98,29.91,11,2,11,0.00
2013-10-3,74.7,61.1,43.0,50.7,36.7,28.2,88,47,22,30.04,29.92,11,2,11,0.00
2013-10-4,81.2,66.9,52.9,37.4,32.7,28.4,54,29,19,30.10,29.95,15,2,15,0.00
2013-10-5,84.4,62.4,42.7,44.1,36.7,31.5,74,43,16,30.18,30.08,6,1,6,0.00
2013-10-6,85.9,63.6,42.1,46.1,39.8,33.7,76,46,22,30.11,29.98,7,1,7,0.00
2013-10-7,85.1,65.3,46.6,47.3,39.6,31.2,76,44,17,29.98,29.84,10,1,10,0.00
2013-10-8,77.6,60.0,44.5,49.1,43.8,38.7,83,59,33,29.87,29.69,9,1,9,0.00
2013-10-9,70.9,54.5,47.2,50.9,44.1,40.4,88,70,41,29.73,29.60,10,1,10,0.00
2013-10-10,75.2,58.4,44.8,50.0,43.8,39.3,83,61,32,29.98,29.73,8,1,8,0.00
2013-10-11,73.3,56.0,42.8,53.5,45.2,38.6,90,69,44,30.05,29.94,7,1,7,0.00
2013-10-12,74.0,54.7,40.3,50.8,43.4,36.3,90,68,40,29.98,29.87,11,2,11,0.00
2013-10-13,74.5,56.7,42.5,53.6,42.7,39.0,91,64,30,30.04,29.90,10,1,10,0.00
2013-10-14,77.8,57.6,40.9,46.7,40.0,36.0,88,57,26,30.10,29.97,9,1,9,0.00
2013-10-15,79.4,58.5,41.2,44.4,37.3,33.9,81,51,22,30.02,29.93,9,1,9,0.00
2013-10-16,82.3,59.7,41.6,45.4,38.5,33.8,77,49,24,30.08,29.98,7,1,7,0.00
2013-10-17,82.4,60.1,41.8,45.4,37.6,33.7,80,48,21,30.07,29.93,8,1,8,0.00
2013-10-18,83.0,60.2,42.1,45.6,39.2,34.1,77,50,25,30.03,29.94,6,1,6,0.00
2013-10-19,83.9,60.8,42.8,48.7,42.0,36.9,83,54,25,30.05,29.96,6,1,6,0.00
2013-10-20,84.2,60.6,42.5,50.0,43.0,36.9,85,56,28,30.00,29.87,8,1,8,0.00
2013-10-21,80.6,63.0,43.4,53.2,46.6,38.7,89,59,34,29.97,29.87,5,1,5,0.00
2013-10-22,81.5,59.2,42.8,55.3,47.2,38.6,90,67,35,29.99,29.87,7,1,7,0.00
2013-10-23,78.7,56.6,43.0,56.2,47.0,39.1,91,72,44,29.94,29.84,8,1,8,0.00
2013-10-24,62.1,53.2,47.2,50.2,46.9,42.6,88,79,64,30.08,29.94,13,2,13,0.00
2013-10-25,76.1,56.9,44.3,53.2,47.5,41.0,91,73,42,30.13,30.04,7,1,7,0.00
2013-10-26,80.3,57.9,41.8,52.1,44.9,38.2,91,66,35,30.11,29.98,6,1,6,0.00
2013-10-27,60.7,51.4,43.0,50.6,45.1,38.5,91,79,67,30.00,29.63,22,4,22,0.00
2013-10-28,61.2,52.2,42.7,48.5,44.7,39.6,91,76,55,29.82,29.65,16,2,16,0.00
2013-10-29,64.8,55.2,46.1,48.7,46.1,40.8,84,72,50,30.02,29.82,10,2,10,0.00
2013-10-30,67.5,51.3,38.9,48.8,42.2,35.7,91,73,46,30.11,30.02,8,1,8,0.00
2013-10-31,73.8,55.5,38.5,48.4,42.8,34.9,90,65,36,30.15,30.03,7,1,7,0.00
2013-11-1,76.9,55.0,39.4,49.2,42.2,35.3,89,65,33,30.12,29.99,8,1,8,0.00
2013-11-2,74.3,53.8,40.0,51.9,43.8,35.6,89,71,42,30.01,29.87,10,1,10,0.00
2013-11-3,65.2,50.2,37.4,44.0,35.7,29.6,91,63,28,30.02,29.89,9,1,9,0.00
2013-11-4,68.9,49.7,34.4,38.3,32.2,28.2,88,56,24,30.03,29.89,8,1,11,0.00
2013-11-5,72.4,54.9,40.7,39.3,35.1,30.9,73,50,29,30.19,30.03,10,1,10,0.00
2013-11-6,72.4,53.8,39.6,44.7,38.5,33.3,81,59,31,30.23,30.13,8,1,8,0.00
2013-11-7,76.0,56.3,43.7,43.0,39.6,36.8,79,57,28,30.14,30.03,8,1,8,0.00
2013-11-8,68.0,48.5,40.9,47.8,40.7,35.9,88,75,48,30.06,29.96,2,0,2,0.00
2013-11-9,75.2,54.2,40.1,50.6,43.5,36.3,91,69,40,30.01,29.93,6,1,6,0.00
2013-11-10,70.9,52.3,40.7,51.5,43.7,36.8,90,74,45,30.09,30.00,7,1,7,0.00
2013-11-11,68.6,54.1,42.3,52.2,46.5,38.7,92,77,53,30.13,30.05,4,0,4,0.00
2013-11-12,74.9,56.7,46.1,51.4,45.4,39.3,82,68,39,30.23,30.10,5,0,5,0.00
2013-11-13,78.5,53.8,40.7,53.5,43.4,36.6,90,70,39,30.22,30.07,0,0,0,0.00
2013-11-14,70.6,52.7,42.7,55.4,46.4,39.1,91,80,55,30.09,29.84,0,0,0,0.00
2013-11-15,67.1,50.4,39.4,46.8,40.4,35.5,91,71,36,29.84,29.70,0,0,0,0.00
2013-11-16,63.7,49.2,40.3,47.3,41.9,35.6,92,77,50,29.90,29.74,0,0,0,0.00
2013-11-17,65.2,52.1,43.9,47.9,44.6,39.3,92,77,52,30.06,29.90,0,0,0,0.00
2013-11-18,59.6,48.6,38.3,47.4,42.4,35.4,91,80,59,30.11,30.04,0,0,0,0.00
2013-11-19,61.7,53.6,47.0,53.1,49.0,43.4,92,85,69,30.08,29.92,0,0,0,0.55
2013-11-20,61.0,55.3,50.2,58.1,52.9,47.9,93,92,86,29.92,29.81,0,0,0,0.49
2013-11-21,60.3,52.9,47.5,49.9,37.0,22.8,94,60,29,29.95,29.86,0,0,0,0.16
2013-11-22,57.2,50.2,41.4,25.6,21.9,15.8,49,33,21,29.99,29.94,0,0,0,0.00
2013-11-23,66.1,52.6,39.8,39.1,36.3,33.3,78,56,36,30.08,29.97,2,0,2,0.00
2013-11-24,65.9,45.5,34.2,44.2,36.2,30.1,90,72,44,30.22,30.06,6,0,6,0.00
2013-11-25,65.2,45.9,33.8,48.2,38.5,30.2,92,77,51,30.30,30.21,6,0,6,0.00
2013-11-26,61.9,47.2,37.4,46.0,39.8,34.7,91,77,51,30.24,30.01,5,0,5,0.00
2013-11-27,62.3,48.4,38.5,49.3,42.2,35.6,91,80,61,30.01,29.82,7,1,7,0.00
2013-11-28,69.7,49.7,38.5,47.0,40.4,35.7,92,73,42,30.06,29.85,6,1,6,0.00
2013-11-29,70.7,49.3,36.0,48.1,39.6,32.4,91,72,42,30.18,30.05,6,0,6,0.00
2013-11-30,68.8,48.6,37.1,47.2,39.7,33.5,90,73,44,30.23,30.15,7,1,7,0.00
2013-12-1,71.3,49.7,36.9,48.7,40.2,33.7,92,72,42,30.31,30.18,7,0,7,0.00
2013-12-2,65.3,49.2,35.8,50.3,42.7,32.2,92,80,53,30.20,29.93,9,1,9,0.00
2013-12-3,54.0,47.9,34.7,51.3,37.1,25.6,92,67,47,29.93,29.81,13,3,14,0.00
2013-12-4,51.7,36.8,26.3,26.6,21.2,16.7,79,56,30,30.05,29.90,8,1,8,0.00
2013-12-5,51.7,33.3,21.4,21.8,18.0,15.2,80,56,28,30.13,30.03,6,0,6,0.00
2013-12-6,50.6,34.2,23.8,44.6,25.4,16.4,91,71,43,30.14,29.87,14,1,14,0.90
2013-12-7,47.9,39.8,29.0,43.4,30.5,23.7,91,71,44,30.21,29.87,13,2,13,0.09
2013-12-8,45.2,33.0,25.6,26.9,22.4,17.6,88,67,39,30.28,30.18,8,1,8,0.00
2013-12-9,49.9,35.7,26.8,25.1,20.1,13.7,76,55,35,30.38,30.26,12,1,12,0.00
2013-12-10,53.6,35.1,23.0,32.0,24.3,18.5,87,67,35,30.37,30.17,6,0,6,0.00
2013-12-11,57.2,37.9,26.3,34.3,26.5,21.7,88,66,32,30.21,30.13,6,1,6,0.00
2013-12-12,59.9,39.5,26.5,37.9,29.4,22.2,89,69,41,30.23,30.12,4,0,4,0.00
2013-12-13,60.7,40.3,28.1,39.0,30.8,23.9,90,71,41,30.29,30.19,5,0,5,0.00
2013-12-14,61.9,41.1,28.8,40.3,30.9,24.8,89,69,36,30.37,30.27,7,1,7,0.00
2013-12-15,63.0,41.6,28.4,41.0,31.8,24.8,89,70,43,30.34,30.21,7,0,7,0.00
2013-12-16,67.3,45.6,33.3,41.3,34.2,29.1,90,67,35,30.22,30.10,5,0,5,0.00
2013-12-17,63.2,45.7,34.7,44.1,36.7,30.3,89,72,47,30.15,30.00,4,0,4,0.00
2013-12-18,62.5,47.6,37.8,45.4,39.9,33.9,89,76,47,30.02,29.73,11,1,11,0.00
2013-12-19,60.3,46.2,35.5,43.8,32.4,19.4,91,63,31,29.89,29.68,10,1,10,0.00
2013-12-20,62.1,45.2,32.0,25.4,20.0,11.0,63,40,16,29.97,29.88,9,1,9,0.00
2013-12-21,65.2,44.3,32.0,40.6,30.0,23.0,75,59,36,30.03,29.93,6,1,6,0.00
2013-12-22,67.5,52.9,38.9,41.5,37.7,32.3,91,58,38,30.25,30.15,6,1,6,0.00
2013-12-23,63.0,44.7,33.5,43.2,35.1,28.7,89,70,47,30.35,30.25,8,1,8,0.00
2013-12-24,70.2,46.8,34.6,45.1,35.7,30.6,89,68,38,30.31,30.17,6,1,6,0.00
2013-12-25,65.5,44.9,33.5,45.4,35.8,29.0,91,72,46,30.27,30.16,6,1,6,0.00
2013-12-26,67.9,44.8,31.3,43.6,34.1,27.8,91,69,37,30.23,30.13,5,1,5,0.00
2013-12-27,58.7,42.8,30.6,43.5,35.2,26.6,90,75,55,30.21,30.07,6,0,6,0.00
2013-12-28,68.4,44.0,29.3,37.0,30.6,25.9,91,64,26,30.11,29.99,7,1,7,0.00
2013-12-29,65.3,45.5,32.9,34.7,28.8,24.1,78,56,25,30.15,30.05,9,1,9,0.00
2013-12-30,64.6,43.4,29.5,41.1,32.3,24.3,87,67,39,30.23,30.14,6,0,6,0.00
2013-12-31,63.4,43.3,32.2,40.6,32.2,27.3,88,67,36,30.24,30.11,8,0,8,0.00
2014-1-1,66.2,44.0,29.9,38.4,30.5,24.7,85,63,31,30.18,30.08,6,0,6,0.00
2014-1-2,67.3,46.2,33.1,41.0,33.6,27.5,85,64,36,30.16,30.02,6,1,6,0.00